Tracking 22779 objects as of 12-Apr-2021
HD Live streaming from Space Station
objects crossing your sky now

STARLINK-1560

Track STARLINK-1560 now!
10-day predictions
STARLINK-1560 is classified as:


NORAD ID: 46036
Int'l Code: 2020-055K
Perigee: 553.3 km
Apogee: 555.4 km
Inclination: 53.1 °
Period: 95.6 minutes
Semi major axis: 6925 km
RCS: Unknown
Launch date: August 7, 2020
Source: United States (US)
Launch site: AIR FORCE EASTERN TEST RANGE (AFETR)
aabbcc
Your satellite tracking list
Your tracking list is empty




NASA's NSSDC Master Catalog

Two Line Element Set (TLE):
1 46036U 20055K   21101.90646926 -.00001286  00000-0 -67487-4 0  9993
2 46036  53.0572 254.7302 0001550 104.0527 256.0634 15.06393019 38684
Source of the keplerian elements: AFSPC